Location: Luxembourg
(49.6117°N, 6.1300°E)
Time: 01:47:34
(UTC+01:00)

Envisat - Pass Details

Date: 30 January 2019
Orbit: 764 x 766 km, 98.2° (Epoch: 16 February)

Event Time Altitude Azimuth Distance (km) Brightness Sun altitude
Rises 19:30:46 0° 176° (S) 3,220 6.2 -20.0°
Reaches altitude 10° 19:33:06 10° 181° (S) 2,298 5.5 -20.4°
Maximum altitude 19:38:05 57° 259° (W) 903 3.6 -21.2°
Drops below altitude 10° 19:43:06 10° 339° (NNW) 2,314 5.7 -22.0°
Sets 19:45:28 0° 343° (NNW) 3,245 6.4 -22.4°
